Home   Weather   Timmins   Past weeks
Flag for Canada

Past Weather in Timmins, Ontario, Canada — Yesterday and Last 2 Weeks

Now
61 °F

Passing clouds.


Feels Like: 61 °F
Forecast: 61 / 40 °F
Wind: 9 mph from West

Location: Timmins

Current Time: May 25, 2019 at 11:20:56 pm

Latest Report: May 25, 2019 at 10:00 pm


Visibility: 15 mi

Pressure: 29.65 "Hg

Humidity: 59%

Dew Point: 46 °F

Location of TimminsLocation

Past Weather in Timmins — Graph

°F

Timmins Temperature Yesterday

Maximum temperature yesterday: 64 °F (at 5:00 pm)
Minimum temperature yesterday: 39 °F (at 5:00 am)
Average temperature yesterday: 49 °F

High & Low Weather Summary for the Past Weeks

 TemperatureHumidityPressure
High73 °F (May 25, 5:29 pm)100% (May 11, 12:00 am)30.27 "Hg (May 11, 12:00 am)
Low25 °F (May 16, 5:00 am)20% (May 14, 1:00 pm)29.58 "Hg (May 25, 5:29 pm)
Average48 °F69%29.96 "Hg
* Reported May 10 10:00 pm — May 25 10:00 pm, Timmins. Weather by CustomWeather, © 2019

Note: Actual official high and low records may vary slightly from our data, if they occured in-between our weather recording intervals... More about our weather records

Advertising

Timmins Weather History for the Previous 24 Hours

Scroll right to see more
 ConditionsComfort  
Time TempWeatherWind HumidityBarometerVisibility
10:00 pm
Sat, May 25
61 °FPassing clouds.9 mph59%29.65 "Hg15 mi
9:00 pm64 °FScattered clouds.7 mph56%29.61 "Hg15 mi
8:00 pm68 °FScattered clouds.13 mph56%29.59 "Hg15 mi
7:00 pm68 °FBroken clouds.9 mph64%29.58 "Hg15 mi
6:17 pm64 °FPartly sunny.6 mph78%29.59 "Hg15 mi
6:00 pm64 °FSprinkles. Partly sunny.16 mph73%29.59 "Hg15 mi
5:45 pm70 °FSprinkles. Partly sunny.10 mph57%29.58 "Hg15 mi
5:29 pm73 °FScattered showers. Partly sunny.8 mph50%29.58 "Hg15 mi
5:00 pm72 °FBroken clouds.13 mph57%29.59 "Hg15 mi
4:00 pm68 °FPartly sunny.10 mph60%29.63 "Hg15 mi
3:00 pm64 °FOvercast.8 mph64%29.66 "Hg15 mi
2:00 pm66 °FPartly sunny.10 mph64%29.67 "Hg15 mi
1:00 pm63 °FPartly sunny.16 mph68%29.70 "Hg15 mi
12:00 pm61 °FPartly sunny.15 mph68%29.74 "Hg15 mi
11:00 am57 °FOvercast.10 mph77%29.77 "Hg15 mi
10:00 am55 °FOvercast.9 mph77%29.80 "Hg15 mi
9:00 am54 °FOvercast.10 mph82%29.83 "Hg15 mi
8:00 am54 °FOvercast.10 mph77%29.85 "Hg15 mi
7:00 am54 °FOvercast.8 mph82%29.85 "Hg15 mi
6:26 am54 °FMostly cloudy.12 mph77%29.87 "Hg15 mi
6:00 am52 °FLight rain. Mostly cloudy.10 mph88%29.88 "Hg10 mi
5:45 am54 °FLight rain. More clouds than sun.12 mph77%29.89 "Hg8 mi
5:00 am55 °FOvercast.10 mph67%29.91 "Hg15 mi
4:00 am55 °FMostly cloudy.8 mph67%29.94 "Hg15 mi
3:00 am55 °FMostly cloudy.9 mph63%29.96 "Hg15 mi
2:00 am57 °FMostly cloudy.13 mph55%29.98 "Hg15 mi
1:00 am57 °FMostly cloudy.10 mph55%30.01 "Hg15 mi
12:00 am57 °FMostly cloudy.12 mph55%30.04 "Hg15 mi
11:00 pm
Fri, May 24
55 °FOvercast.7 mph59%30.06 "Hg15 mi
Weather by CustomWeather, © 2019

See weather overview